Temp
28 28 29 30 32 33 32 32 32 32 32 31 31 31 31 31 30 29 28 27 27 27 26 26 26 26 26 26 26 26 26 26 26 26 26 26 26 26 26 26 26 26 26 26 26 26 26 26 26 25 25 25 25 25 25 25 25 25 25 25 25 25 26
29 29 29 29 31 32 33 32 32 32 32 31 31 31 31 31 30 29 28 27 27 27 26 26 26 26 26 26 26 26 26 26 26 26 26 26 26 26 26 26 26 26 26 26 26 26 26 26 26 26 25 25 25 25 25 25 25 25 25 25 25 25 25
30 29 29 28 29 31 32 32 32 32 32 31 31 32 31 31 30 29 28 27 27 27 27 26 26 26 26 26 26 26 26 26 26 26 27 27 27 27 27 27 26 26 26 26 26 26 26 26 26 26 25 25 26 25 25 25 25 25 25 25 25 25 25
30 30 30 29 28 29 31 32 32 32 32 32 32 32 31 31 30 30 28 28 28 27 27 27 26 27 26 26 26 26 26 26 26 27 27 27 27 27 27 27 26 26 26 26 26 26 26 26 26 26 26 26 26 26 25 25 25 25 25 25 25 25 25
29 30 29 29 28 27 29 31 31 32 32 32 32 31 31 31 30 30 29 28 28 28 27 27 27 27 27 26 27 26 26 26 26 27 27 27 27 27 27 27 26 26 26 26 26 26 26 26 26 26 26 26 26 26 26 25 25 25 25 25 25 25 25
29 29 29 28 28 27 28 29 30 31 31 31 31 31 31 30 30 30 29 29 29 28 28 28 28 28 27 27 27 27 27 26 26 27 27 27 27 27 27 27 27 27 27 26 26 26 26 26 26 26 26 26 26 26 26 25 25 25 25 25 25 25 26
29 28 28 28 27 27 27 27 29 30 31 31 31 31 30 30 30 30 29 29 29 28 28 28 28 28 27 28 28 27 27 27 27 27 27 27 27 27 27 26 27 27 27 27 26 26 26 26 26 26 26 26 26 26 26 26 26 26 25 25 25 25 26
29 28 28 29 28 28 28 28 28 29 30 30 30 30 30 29 29 29 29 29 29 29 28 29 29 28 28 28 28 28 27 27 27 27 27 28 28 28 27 27 27 27 27 27 26 26 26 26 26 26 26 26 26 26 26 26 26 26 26 26 25 25 26
29 29 29 29 28 28 28 28 28 29 29 30 30 29 29 28 28 28 28 28 29 29 29 29 29 29 28 28 28 28 28 28 28 27 27 28 28 28 28 28 27 27 27 27 27 26 26 26 26 26 26 26 26 26 26 26 26 26 26 26 26 26 26
28 29 28 28 27 27 28 28 28 28 29 29 29 28 27 27 27 28 27 27 28 28 29 29 29 29 29 29 28 28 28 28 28 28 28 28 28 28 28 28 28 28 27 27 27 27 26 26 26 26 26 26 26 26 26 26 26 26 26 26 26 26 26
27 27 27 25 24 25 26 26 27 27 27 28 27 26 26 27 27 28 27 27 27 28 28 28 29 29 29 28 28 28 29 29 29 29 28 29 29 29 29 29 29 28 27 27 27 27 26 26 26 26 26 26 26 26 26 26 26 26 26 26 26 26 26
26 26 25 23 23 23 23 24 24 24 25 26 26 26 26 26 26 27 27 27 27 27 27 27 28 28 28 28 28 28 28 29 29 29 29 29 29 29 29 29 29 29 28 27 27 27 26 26 26 26 26 26 26 26 26 26 26 26 26 27 27 26 26
25 25 24 24 23 23 23 23 23 23 24 25 25 25 26 25 25 25 25 25 26 26 26 26 26 27 27 27 27 27 27 28 28 29 29 29 29 29 29 29 29 29 29 27 27 27 26 26 26 26 26 26 26 26 26 26 26 26 26 26 26 26 26
24 24 24 24 23 23 23 23 23 23 23 25 25 24 25 25 25 25 24 24 24 24 24 25 26 27 27 27 27 27 27 27 28 28 29 28 29 29 29 29 29 30 29 28 27 27 27 27 27 27 26 26 26 26 26 26 26 26 26 26 26 26 26
23 24 23 24 23 22 22 22 23 23 23 24 24 23 24 24 24 24 24 24 23 23 24 25 26 26 26 26 26 26 26 27 27 28 28 28 28 28 28 29 29 29 29 28 28 28 27 27 27 27 27 26 26 26 26 26 26 26 26 26 26 26 26
22 22 22 22 22 22 22 22 23 23 23 23 23 22 22 23 23 23 23 24 24 23 24 24 25 25 25 25 25 25 26 26 26 26 27 27 27 27 27 27 28 28 28 28 28 27 27 27 27 27 27 27 26 26 26 26 26 26 26 26 27 27 26
21 21 21 20 21 21 22 21 21 22 23 23 22 22 22 23 23 23 23 23 24 24 24 24 24 24 24 24 24 25 25 25 24 25 25 25 26 26 26 26 26 26 27 27 27 26 26 26 26 26 26 26 26 26 26 27 27 27 27 27 27 27 27
21 21 21 20 20 20 21 20 20 21 21 21 22 22 22 23 23 23 23 23 23 24 24 24 24 24 24 24 24 24 24 24 23 24 24 24 24 23 24 24 25 25 25 26 26 26 25 25 25 25 25 25 26 27 27 27 27 27 27 27 27 27 27
21 22 22 21 20 20 20 20 20 20 19 20 20 21 21 22 22 22 23 23 22 22 22 22 23 23 23 23 23 23 23 23 23 23 23 24 24 23 23 23 23 24 24 24 25 25 25 25 25 26 25 25 26 26 26 26 26 26 27 27 27 27 27
22 22 22 21 20 20 20 20 19 19 19 19 19 19 19 20 20 21 21 21 21 21 21 21 21 21 22 22 22 22 22 22 22 22 22 22 23 23 23 23 23 23 23 23 24 25 25 25 25 25 26 26 26 26 25 25 25 26 26 27 27 27 28
22 22 21 21 20 20 20 20 20 20 19 19 19 19 20 20 19 20 20 20 20 20 20 20 20 20 20 21 21 21 21 22 22 21 21 22 22 22 22 22 22 23 23 23 23 24 24 24 24 25 25 25 25 25 24 24 25 25 27 27 26 27 27
22 22 22 21 21 21 21 21 21 21 20 20 20 20 20 20 20 20 20 19 19 19 19 19 19 19 19 20 20 20 20 21 21 20 21 21 21 21 21 21 21 22 23 23 23 23 23 23 23 24 24 24 24 24 24 24 25 25 26 26 26 26 26
22 22 22 22 22 21 21 21 21 21 20 21 21 21 20 20 20 20 19 19 19 18 19 19 19 19 19 19 20 20 20 20 20 21 21 21 20 20 20 20 21 21 22 22 22 22 22 22 22 23 23 23 23 23 23 23 24 25 25 25 25 26 25
22 22 22 21 21 21 21 21 22 21 21 21 21 21 20 20 20 20 19 19 19 19 19 19 19 19 19 19 19 20 20 20 20 20 20 20 20 20 20 20 20 21 21 21 21 21 21 21 22 22 22 21 21 22 22 23 23 24 24 24 25 25 24
22 22 21 21 21 20 20 21 21 22 22 22 22 22 21 21 21 21 20 20 20 19 19 19 19 19 19 19 19 19 19 20 20 20 20 19 19 20 20 20 20 20 20 20 20 20 21 21 21 21 21 20 20 21 22 22 23 23 22 23 23 24 24
21 21 21 21 21 21 21 21 20 20 21 21 21 21 21 21 21 21 21 21 20 20 19 19 18 19 19 19 19 19 19 20 20 20 20 20 20 20 20 20 20 20 20 20 20 20 20 20 20 20 20 20 20 20 20 21 21 21 21 21 22 23 23
20 20 20 20 21 20 20 20 20 20 20 20 20 20 20 20 20 20 20 20 20 20 19 19 19 19 19 19 19 19 20 20 20 20 20 20 20 20 20 20 20 20 20 20 20 19 19 19 19 19 19 19 19 19 19 19 20 20 20 20 21 22 22
19 19 19 20 20 20 20 19 19 19 19 19 19 19 19 19 19 19 19 19 20 20 19 19 19 19 19 19 19 19 19 20 20 20 20 20 20 20 20 20 20 20 20 20 19 19 19 19 19 19 19 18 18 18 18 19 19 19 20 20 20 21 21
17 17 17 18 18 19 19 19 19 19 18 18 18 18 18 18 18 18 18 18 19 19 19 19 18 18 18 19 19 19 19 20 21 21 20 20 20 20 20 20 20 20 20 20 20 19 19 19 19 19 19 18 17 18 18 18 19 19 19 20 20 20 21
17 17 16 16 17 17 17 17 18 18 18 18 18 17 17 17 18 18 18 18 18 18 19 19 19 19 19 19 19 19 19 20 20 20 20 20 20 20 20 20 20 20 20 20 20 20 20 19 19 19 18 18 17 17 18 18 18 18 19 19 19 20 20
18 18 17 16 16 16 17 16 16 17 16 17 17 17 17 17 17 17 17 17 17 17 18 18 19 19 19 19 19 19 19 19 20 20 21 21 21 21 21 21 21 21 21 21 21 21 21 20 19 19 19 18 18 18 18 18 18 18 18 18 19 19 19
19 19 18 17 17 16 16 16 16 15 15 16 16 17 17 17 17 16 16 17 17 17 17 18 18 19 19 19 19 20 19 19 19 20 20 20 20 21 21 21 21 21 21 21 21 21 22 22 21 20 20 19 19 19 19 18 18 18 18 18 19 19 19
19 19 19 18 17 16 16 16 15 15 14 15 15 16 16 16 16 16 16 16 17 17 17 17 18 18 19 19 19 20 20 20 20 20 20 20 19 20 20 21 21 20 19 19 19 20 21 22 22 22 21 21 21 20 19 18 18 18 18 19 19 19 19
19 19 18 17 17 17 17 17 16 15 14 14 15 15 15 15 15 15 15 15 16 16 17 17 18 18 19 19 19 19 20 20 20 20 20 19 19 19 19 19 19 18 18 18 18 18 18 19 20 21 21 21 20 19 18 17 17 18 18 18 18 18 19
19 19 18 18 18 18 17 17 16 16 15 14 14 15 15 15 14 15 15 15 15 16 16 17 17 18 18 19 19 19 19 20 20 20 19 19 18 18 18 18 18 18 18 18 18 17 18 18 18 18 18 18 18 18 17 16 16 17 17 17 17 17 18
19 19 19 19 18 18 18 17 16 16 15 14 14 14 14 14 14 14 15 15 15 15 16 16 17 18 18 18 18 18 19 20 19 19 19 19 19 18 18 18 18 18 18 18 18 18 18 18 18 18 17 17 17 16 16 16 16 16 16 16 17 17 17
19 19 19 19 19 18 17 17 16 16 16 15 14 14 14 14 14 14 14 14 14 15 15 15 16 17 17 17 16 16 17 18 18 18 18 18 18 18 18 17 17 17 17 18 18 18 18 18 18 18 17 16 16 16 16 16 16 16 16 16 16 16 17
19 19 18 18 18 18 17 17 16 16 15 15 15 15 14 14 14 14 14 14 14 14 14 14 15 16 16 17 16 16 17 17 17 18 18 18 18 18 18 18 17 16 17 17 17 17 17 17 17 17 17 16 16 16 15 15 15 15 15 15 16 16 16
Height
778 777 775 773 772 772 773 775 779 781 784 788 790 793 795 797 800 803 807 810 812 815 817 819 821 823 825 826 828 830 831 833 835 836 838 839 840 842 843 844 845 846 847 849 850 851 852 853 854 855 856 857 857 857 858 858 859 859 859 860 860 860 861
775 776 775 774 772 771 772 774 778 780 783 787 789 792 793 795 798 801 805 808 811 814 816 818 820 822 824 825 827 829 830 832 834 835 837 838 840 841 842 843 844 845 847 848 849 850 851 852 853 854 855 856 857 857 858 858 858 859 859 859 860 860 860
772 774 774 774 773 771 771 773 777 779 782 786 788 790 792 794 797 800 803 807 810 812 815 817 819 820 823 825 826 828 829 831 833 834 836 837 839 840 841 842 843 845 846 846 848 849 850 851 852 853 854 855 856 856 857 858 858 858 859 859 859 859 860
770 771 771 773 773 772 770 771 776 778 780 784 786 789 791 793 797 799 802 806 808 811 813 815 818 819 821 823 825 827 828 830 832 833 835 836 838 839 840 842 843 844 845 845 846 848 849 850 851 853 854 855 855 856 856 857 857 858 858 858 859 859 859
769 769 771 773 773 774 772 771 775 778 779 783 785 787 790 793 796 799 802 805 807 809 811 814 816 818 820 822 824 826 827 829 830 832 833 835 836 838 839 840 841 842 844 844 845 846 847 849 850 851 853 854 855 855 856 856 857 857 857 858 858 858 859
769 769 771 772 773 775 773 772 775 777 780 782 784 787 789 792 795 798 801 804 806 808 810 813 815 817 819 821 822 824 826 828 829 831 832 833 835 836 837 839 840 841 843 843 844 845 846 848 849 850 851 852 854 854 855 855 856 856 857 857 857 858 858
767 769 770 771 772 774 774 774 775 777 780 782 784 787 789 792 794 797 800 803 804 807 809 811 813 815 818 819 821 823 825 827 828 830 831 832 833 835 836 838 839 840 842 843 844 845 846 847 848 849 850 851 852 853 853 854 855 856 856 856 856 856 857
763 767 768 768 770 772 773 774 776 778 781 782 784 787 789 792 794 796 800 802 804 806 808 810 812 813 816 818 820 821 823 825 827 828 830 831 832 834 835 836 837 838 840 841 842 843 845 846 847 848 849 850 851 852 852 853 853 854 855 855 855 855 856
761 763 766 766 768 770 772 775 778 780 782 783 785 787 789 792 794 796 799 801 803 804 807 809 811 812 814 816 818 820 822 823 825 827 828 829 831 832 833 835 836 837 838 840 841 842 843 845 846 847 848 849 850 850 851 852 852 853 854 854 854 854 855
763 764 765 767 770 771 772 776 778 781 783 784 786 788 791 792 793 795 798 800 802 803 806 808 810 811 813 815 817 818 820 822 823 825 826 828 829 830 831 833 834 835 837 838 840 841 842 844 845 846 846 848 849 849 850 851 851 852 853 853 853 853 854
764 766 768 772 775 775 776 778 780 783 785 785 786 789 791 792 792 794 797 799 801 802 805 808 809 811 812 814 816 817 818 820 821 823 824 826 827 828 830 831 832 834 835 837 839 840 841 842 843 844 845 846 847 848 849 850 850 851 852 852 852 852 853
768 770 772 775 777 777 778 780 782 785 787 787 788 789 791 792 793 795 797 799 801 803 805 807 809 811 812 813 814 816 817 818 820 821 822 824 825 826 828 829 830 832 833 835 837 838 840 841 842 843 844 845 846 847 848 848 849 850 851 851 851 851 852
773 774 775 775 776 777 779 780 781 783 785 787 788 790 791 794 795 796 798 799 800 803 806 808 810 811 811 812 813 814 816 817 819 820 821 822 824 825 826 827 828 829 831 833 835 836 838 839 841 842 842 844 845 846 846 847 848 849 850 851 851 851 851
776 777 777 777 778 779 779 781 782 782 784 785 787 790 791 794 797 798 800 802 803 805 808 809 810 810 810 811 812 813 815 817 819 819 820 821 822 824 825 825 827 828 829 831 833 835 836 837 839 840 841 842 843 844 845 846 847 848 849 850 850 850 850
781 780 781 780 780 780 780 781 781 783 785 786 788 791 793 795 798 799 801 803 804 806 806 806 807 808 810 811 812 813 815 817 818 818 819 821 821 823 824 825 826 827 828 830 831 833 834 835 837 839 839 840 842 843 844 845 846 846 847 848 849 849 850
787 784 784 784 783 782 782 782 782 784 787 788 790 793 796 799 801 802 802 802 802 803 803 804 805 807 809 810 812 813 815 816 817 817 818 819 821 822 824 825 826 826 827 829 830 831 832 833 835 837 838 839 840 842 843 844 844 845 846 847 848 848 849
792 788 787 788 788 786 783 783 784 786 789 791 792 793 795 799 801 802 803 803 803 803 803 805 806 807 809 810 812 813 814 815 816 816 817 818 820 822 823 824 825 826 826 827 828 830 832 833 835 837 838 839 839 840 842 842 843 843 844 845 846 847 848
795 791 788 789 790 790 788 786 786 788 790 792 793 794 796 798 799 801 802 803 803 803 805 806 806 808 810 811 812 813 814 815 816 816 817 818 820 822 824 825 826 826 827 827 827 829 831 832 834 836 838 838 838 838 840 841 841 842 843 844 844 845 846
791 789 788 789 791 791 792 791 791 792 794 795 796 797 798 798 799 800 801 802 803 803 805 806 806 808 810 811 813 813 814 815 816 817 818 819 820 822 823 825 826 827 827 827 827 828 829 830 831 833 835 836 836 837 839 839 840 840 842 842 843 844 844
789 788 788 790 791 792 793 794 794 796 797 798 800 800 801 801 801 800 800 801 802 803 805 805 806 807 809 811 812 813 814 815 815 817 819 821 821 821 821 823 825 826 827 827 827 827 828 829 830 831 832 833 834 836 836 836 838 839 839 840 841 842 842
789 789 790 792 792 793 795 795 797 800 801 802 802 803 805 805 804 802 801 801 802 803 803 804 805 807 808 809 810 811 812 812 813 815 817 819 820 821 821 823 824 824 825 825 826 827 827 828 829 830 831 831 832 833 833 834 836 838 837 837 837 839 841
791 791 792 793 794 795 796 797 799 802 804 805 805 805 806 806 804 803 801 802 803 803 803 804 806 807 808 808 808 809 810 811 812 813 814 816 818 820 821 822 822 822 822 822 823 825 826 827 828 829 829 829 830 831 832 833 834 835 836 835 836 838 840
792 793 794 794 796 796 797 798 800 801 804 804 804 805 805 804 804 803 803 804 805 805 805 805 806 807 808 808 809 809 810 810 811 811 812 814 816 818 818 818 819 819 820 821 822 823 824 825 826 826 827 827 828 829 831 832 834 834 834 835 836 838 839
796 797 797 797 799 799 799 799 800 801 804 804 804 805 805 805 805 805 806 807 807 808 808 807 807 808 809 809 810 810 811 811 811 810 812 813 815 817 816 816 816 817 818 820 821 821 822 823 823 824 825 826 827 828 830 831 833 833 833 834 835 836 837
799 800 801 801 801 802 802 802 801 802 804 805 806 806 807 808 808 808 808 809 810 811 811 810 810 810 811 811 811 812 813 813 813 812 813 814 815 816 815 815 815 816 817 819 819 820 820 821 821 823 824 825 826 828 829 829 830 832 833 834 833 834 836
805 805 805 805 804 804 805 805 805 805 806 808 809 809 810 811 811 811 812 812 813 813 814 815 814 813 813 814 814 814 815 815 815 814 815 815 816 816 816 815 815 816 817 817 818 819 819 820 820 821 822 823 824 826 827 828 828 831 833 834 832 832 834
810 809 809 809 809 808 808 809 809 809 811 813 813 813 813 814 814 815 815 815 815 816 817 818 818 817 817 817 816 816 817 816 816 816 816 816 817 817 817 816 816 816 817 817 818 818 819 819 820 821 822 822 822 824 825 826 827 830 832 833 832 831 832
812 813 813 812 812 812 812 813 812 812 814 816 817 818 818 818 818 819 820 820 819 819 820 820 820 821 820 820 819 818 818 818 818 817 817 817 817 817 817 817 817 817 817 817 818 819 819 820 821 822 824 824 822 822 824 826 827 829 831 833 833 832 832
815 816 815 815 815 815 815 816 816 816 817 819 820 821 821 820 821 822 823 824 823 823 823 823 823 823 822 822 821 819 819 821 820 819 818 818 818 818 818 818 818 818 818 818 819 819 820 821 822 823 824 825 824 824 824 826 828 829 831 832 833 833 833
817 818 818 817 818 817 817 818 818 818 819 820 821 823 822 822 822 823 824 825 825 825 826 825 825 825 824 825 823 821 822 823 822 820 819 819 819 819 819 820 819 819 819 820 820 821 821 822 823 823 824 825 826 827 827 828 830 832 832 833 834 834 835
818 819 819 819 820 819 819 820 821 821 821 821 822 824 824 824 824 825 826 827 827 827 827 827 827 826 826 825 824 823 823 823 822 821 821 821 821 821 821 822 821 820 821 821 821 821 822 822 823 824 825 825 826 827 829 830 832 834 834 834 835 835 835
818 819 819 820 821 821 821 821 823 823 822 822 823 824 824 824 825 826 827 828 829 829 828 829 829 828 826 825 824 824 824 823 822 821 822 823 823 822 822 822 822 822 822 822 822 822 823 823 823 824 825 826 826 828 829 831 832 834 834 834 835 835 836
819 819 819 820 820 821 822 822 824 825 824 824 824 825 825 825 825 827 829 830 830 831 831 831 831 829 827 826 826 825 825 824 823 823 823 823 823 823 822 822 823 823 823 823 824 823 823 823 823 824 825 826 827 829 830 832 833 833 834 835 835 836 836
820 819 820 821 821 822 822 822 824 825 825 825 825 826 826 826 826 828 829 830 830 832 833 833 832 831 829 828 827 827 826 826 825 824 824 824 824 825 825 825 824 825 825 825 826 825 825 825 824 825 826 827 828 830 831 833 834 834 835 835 835 836 836
820 820 821 821 822 822 822 822 823 824 824 825 825 826 826 827 828 829 829 830 830 831 833 834 834 833 832 829 829 829 828 828 827 826 825 825 826 827 829 829 827 827 827 827 827 827 827 827 826 827 828 828 830 831 833 834 835 835 836 836 835 836 836
820 821 822 822 822 823 822 822 823 823 824 825 826 826 827 828 829 830 830 830 829 829 831 832 833 833 833 831 830 829 828 829 829 828 827 826 827 828 829 830 829 828 828 828 828 828 828 828 828 829 830 830 831 832 833 834 835 835 835 835 835 835 835
821 822 822 823 823 824 824 824 824 824 825 826 826 827 828 828 829 830 830 830 829 828 829 830 832 834 833 832 831 830 829 830 831 830 829 828 828 829 829 829 830 830 829 829 829 829 829 829 829 830 831 832 833 833 834 835 835 835 835 835 835 835 835
822 822 823 824 824 825 826 826 826 827 827 827 827 827 827 828 829 830 830 830 830 829 829 830 833 835 835 834 833 832 831 831 832 832 831 830 830 830 830 830 830 830 830 831 831 831 831 831 832 832 833 834 835 835 835 836 835 835 835 835 835 835 834
Wind_Speed
12 10 8 6 11 16 13 15 19 18 19 21 20 21 21 20 22 23 22 23 23 21 21 21 21 20 19 18 17 17 16 15 14 13 13 14 14 14 13 12 12 12 11 10 10 11 11 10 11 11 12 11 10 10 10 10 9 8 8 7 6 6 5
14 12 8 4 7 13 14 17 20 19 20 21 21 21 21 21 22 23 23 24 23 21 20 21 21 21 20 19 18 17 17 16 15 14 13 13 13 13 13 12 12 12 11 11 11 11 9 8 9 11 12 12 11 11 10 10 10 9 9 8 7 8 7
14 12 10 5 3 6 13 18 19 20 22 22 22 22 21 21 22 23 24 24 23 22 20 20 20 20 20 19 18 18 18 17 16 15 14 13 13 13 13 12 12 12 11 10 11 11 9 9 10 11 11 11 11 12 11 10 11 10 10 10 9 9 9
12 12 11 7 2 3 8 17 18 19 23 24 23 22 22 22 22 22 24 23 23 23 22 21 20 19 19 19 18 18 18 18 17 15 14 14 13 13 12 12 11 11 11 10 10 10 10 10 11 11 11 11 11 12 11 10 11 11 10 10 9 9 10
12 12 10 7 5 3 3 12 18 19 21 23 24 23 21 22 21 21 22 22 22 22 22 21 20 19 19 19 18 17 18 18 17 16 14 14 14 13 12 12 11 11 12 11 10 11 11 11 11 12 12 11 11 12 12 11 11 11 11 11 10 10 10
10 10 10 8 7 4 2 5 14 20 21 21 23 22 21 22 22 22 21 21 22 22 22 21 20 19 19 18 17 17 18 17 17 17 15 14 14 14 14 14 13 11 12 11 10 12 11 10 12 12 12 12 12 12 12 12 11 11 12 12 11 10 10
9 8 10 10 8 7 5 3 7 13 17 21 22 20 21 21 19 19 21 21 22 23 23 22 20 20 19 18 17 17 17 17 17 16 16 14 14 15 15 16 15 14 12 11 11 12 11 10 12 12 12 12 12 12 12 13 12 12 13 13 12 12 11
11 10 11 13 11 9 7 6 5 7 10 18 22 19 19 18 15 16 18 19 21 22 23 22 20 21 21 18 17 18 17 17 17 16 16 15 15 15 15 16 16 16 14 12 12 13 12 11 11 12 12 13 12 12 13 14 13 12 13 13 13 12 11
8 10 11 13 12 10 9 10 11 11 10 15 21 20 18 16 17 18 15 14 18 19 20 20 18 20 21 19 17 17 17 17 17 17 16 16 15 15 15 15 14 14 14 13 12 13 12 12 11 12 13 13 12 13 13 14 14 14 13 14 13 12 12
7 8 9 9 8 8 9 10 11 12 14 15 15 15 18 18 19 21 16 13 16 16 16 18 17 17 19 19 17 17 17 17 17 17 17 16 16 16 15 15 14 14 14 13 12 12 13 12 12 14 15 13 12 14 14 13 15 15 13 13 14 14 13
8 8 8 7 4 4 5 5 4 3 6 10 14 16 19 19 20 21 18 17 17 16 15 16 16 17 17 17 17 16 16 16 16 16 17 17 16 16 16 15 15 15 15 14 13 13 13 13 13 15 17 15 13 14 15 15 15 15 14 13 14 14 13
7 8 9 9 7 6 6 4 7 8 6 9 15 17 16 16 17 18 17 16 18 17 16 15 15 16 17 16 16 15 15 15 15 16 16 16 15 16 16 16 15 15 16 16 15 14 14 14 14 15 17 18 15 14 16 17 16 16 15 14 14 14 13
6 7 8 10 8 7 7 7 9 10 8 10 14 15 14 15 16 18 16 15 15 16 16 17 17 17 18 18 18 17 15 14 14 14 15 15 15 15 15 15 16 16 16 17 16 15 15 15 16 15 16 17 16 15 16 17 16 16 16 15 15 15 14
5 7 7 8 9 8 8 8 8 7 9 11 12 12 14 15 15 17 17 15 16 18 19 19 17 16 17 18 19 18 16 16 15 14 14 14 14 14 14 14 15 16 16 17 17 17 16 16 17 16 15 16 17 16 16 17 16 16 17 16 16 15 14
3 7 8 8 10 9 7 8 8 6 6 9 9 10 9 9 11 13 14 14 15 16 16 15 14 13 13 14 15 16 16 16 14 14 14 14 13 12 12 13 13 13 15 16 19 18 17 17 17 17 18 18 18 17 16 15 16 18 17 16 16 15 13
1 3 6 7 7 8 7 6 6 7 7 7 8 7 5 3 2 5 8 10 10 9 8 9 10 10 11 11 11 12 13 11 10 11 12 12 11 10 10 10 9 9 10 12 14 16 17 18 18 18 18 17 16 16 16 14 14 17 18 17 16 15 13
2 2 6 6 4 6 7 5 2 3 5 7 10 11 9 9 9 8 8 9 9 8 6 6 6 6 8 10 9 9 9 7 6 8 8 8 7 7 9 10 9 10 10 8 8 8 10 14 16 15 16 17 16 16 15 14 14 16 18 18 17 16 13
6 5 10 9 4 3 5 4 4 5 5 4 7 10 12 15 16 13 12 12 12 12 12 12 11 10 9 9 9 8 7 6 4 5 8 9 6 2 4 6 7 8 9 8 9 9 7 8 10 12 13 15 15 14 13 14 14 15 16 18 19 18 16
6 7 10 11 9 7 6 7 8 8 7 5 4 5 4 7 10 9 10 10 11 12 12 12 13 14 12 10 10 9 9 9 8 6 7 11 11 8 7 8 9 8 7 7 9 11 10 8 7 8 10 9 10 12 12 12 13 14 16 18 20 20 18
7 10 11 11 11 9 9 11 11 10 9 8 9 10 8 7 7 7 6 5 4 6 7 6 7 10 11 10 9 9 9 10 10 6 3 8 14 15 14 14 16 14 11 10 10 13 14 12 9 10 11 9 8 9 8 6 10 16 18 20 24 24 22
9 11 11 11 11 10 10 12 12 11 10 8 8 8 7 7 7 8 11 12 11 9 8 7 6 3 5 6 6 7 9 9 9 7 5 8 11 14 15 16 17 17 16 14 14 15 15 15 14 15 14 12 10 9 6 5 10 15 17 20 25 25 22
10 11 11 11 12 12 13 14 14 14 12 10 10 9 8 7 8 10 12 13 14 15 14 13 12 9 5 5 5 4 5 5 6 7 8 10 10 10 12 12 13 17 19 18 17 15 14 14 16 17 16 14 13 12 9 7 9 12 12 13 16 18 17
12 12 14 15 14 14 15 15 16 16 13 11 11 11 11 11 11 13 15 14 15 16 16 16 15 13 9 4 2 2 2 2 4 7 8 9 8 8 10 12 14 16 17 17 15 15 14 14 15 15 14 13 13 13 12 10 8 9 10 11 13 14 12
14 15 16 18 19 18 16 15 17 16 14 12 11 10 11 12 12 14 14 15 15 16 17 17 16 16 13 9 6 6 5 5 2 3 3 3 5 6 8 11 12 12 13 13 13 14 15 15 16 16 14 11 9 9 9 10 9 9 11 13 13 13 11
16 16 17 17 18 20 22 22 22 20 17 15 13 11 11 10 11 13 14 14 15 15 16 15 15 15 14 11 10 9 8 6 6 5 5 4 2 2 2 3 3 6 9 10 11 13 13 14 15 16 15 13 10 8 8 10 12 10 10 11 12 11 10
16 17 17 16 16 18 20 22 24 23 21 19 17 16 16 14 14 15 15 14 14 15 15 15 14 14 13 12 12 12 10 9 7 7 6 5 4 4 3 3 2 2 4 5 6 6 8 9 11 14 16 17 15 12 11 12 13 10 8 8 10 10 8
16 17 17 16 16 17 18 20 21 21 22 21 19 18 18 17 17 17 16 15 15 15 14 13 13 13 12 12 11 11 11 10 9 8 7 6 5 4 3 3 3 3 2 2 3 3 4 3 2 1 4 11 16 16 12 10 10 8 5 3 4 6 6
16 17 17 17 17 17 18 19 20 21 21 20 18 17 16 16 16 16 15 15 15 14 12 11 12 11 11 11 11 10 9 8 8 9 9 8 7 6 6 5 4 3 3 3 4 5 6 7 8 10 10 11 14 15 12 8 6 6 3 2 2 3 4
15 15 16 17 18 18 18 19 20 20 19 18 18 17 16 16 16 15 14 14 14 13 11 10 10 10 10 10 11 11 10 8 8 10 11 10 9 10 11 11 11 9 7 6 7 7 7 7 9 11 13 13 13 14 13 11 9 9 8 7 6 6 4
13 14 15 17 18 19 19 18 18 18 18 17 17 16 16 16 16 15 14 14 14 13 12 10 9 8 8 7 8 9 9 7 8 9 10 10 9 9 10 11 12 11 10 9 8 8 8 9 10 12 13 15 16 16 16 17 16 14 13 13 12 11 9
12 12 13 14 16 18 18 16 15 15 15 16 15 14 14 14 15 16 16 15 15 14 13 10 8 8 7 6 7 8 7 7 8 9 9 8 6 7 8 9 10 9 9 10 9 8 9 10 10 12 13 14 15 14 14 16 16 13 13 14 12 11 11
12 12 11 11 11 12 13 13 12 12 12 13 13 13 13 14 15 16 15 14 14 14 14 11 9 8 8 7 7 7 7 7 8 9 9 9 7 7 8 7 8 8 9 10 10 9 8 8 10 13 13 13 12 11 11 13 13 11 11 11 10 9 9
11 10 10 9 8 8 8 9 9 9 9 9 10 12 14 14 14 15 14 13 13 13 14 12 9 8 9 9 9 8 6 6 6 7 8 10 10 11 11 10 9 10 12 13 13 12 10 6 6 9 9 9 10 11 13 13 11 9 9 9 8 7 6
10 10 9 8 7 7 7 6 6 7 8 7 8 11 13 13 12 12 11 11 11 11 11 11 9 8 8 7 7 7 6 5 6 5 7 7 8 10 12 14 13 13 13 13 13 15 15 12 10 11 11 9 10 13 13 11 10 9 8 7 7 6 5
10 10 10 9 7 6 6 6 5 6 7 6 5 7 9 10 11 10 9 9 10 9 9 9 7 5 6 7 7 7 6 4 6 8 6 8 9 7 8 10 11 11 11 11 11 11 12 12 12 14 14 12 11 11 10 8 8 7 6 6 6 6 5
11 11 10 10 9 8 8 8 7 6 7 6 5 6 6 6 7 7 7 7 8 9 7 9 9 4 5 7 8 9 9 6 6 9 9 7 11 11 8 7 7 8 9 10 10 10 9 9 9 11 11 9 9 9 7 7 7 6 6 6 6 5 5
10 9 8 8 8 8 8 8 8 7 8 7 8 8 8 6 5 5 5 5 5 7 7 8 10 7 5 6 6 7 10 9 7 8 9 9 7 7 7 7 7 8 10 11 10 10 9 8 8 8 7 7 6 6 7 7 7 7 7 6 6 5 5
8 8 7 6 7 7 7 6 6 6 6 7 8 9 9 8 7 6 5 5 4 4 5 7 9 10 7 5 5 6 8 8 7 7 8 8 7 5 3 5 8 8 8 8 9 10 10 10 10 9 9 7 5 4 6 7 7 7 7 6 6 6 6
Wind_Direction
201 219 230 212 195 193 187 177 181 183 174 173 178 178 180 177 164 161 167 169 170 170 170 171 172 173 175 175 176 177 177 178 180 179 178 182 186 185 185 187 187 186 184 189 194 194 197 195 194 197 191 193 202 201 205 211 209 211 216 206 198 215 226
199 208 218 229 204 193 186 177 179 181 173 174 181 184 184 174 163 162 165 168 171 172 173 172 173 175 176 177 178 178 180 181 182 184 184 188 189 186 188 188 188 190 187 191 198 194 195 196 193 198 196 192 199 205 205 207 205 205 214 213 207 224 231
196 202 204 211 226 203 186 179 182 180 175 180 184 186 184 174 166 164 164 169 173 173 175 175 174 177 177 178 179 179 181 184 185 188 188 190 190 188 190 187 184 189 188 191 197 192 193 201 196 198 199 194 201 208 205 204 204 205 215 217 207 223 233
193 195 197 192 196 263 193 177 182 183 178 182 186 186 182 173 168 165 165 172 176 175 177 178 176 177 178 179 180 180 183 186 188 191 193 193 191 189 189 186 182 186 189 193 201 194 190 198 200 202 206 202 206 212 209 206 205 205 218 221 211 223 237
193 193 195 187 180 244 218 176 181 186 182 182 183 184 178 171 170 170 171 176 179 178 179 180 180 179 179 181 183 183 184 188 189 192 198 196 191 190 192 191 187 190 194 198 205 201 196 202 204 205 209 208 210 214 210 211 210 206 214 221 219 228 237
190 192 191 183 179 199 223 186 184 185 186 182 179 179 176 174 177 176 177 180 179 178 180 182 183 181 181 185 187 186 185 188 191 193 198 199 196 195 196 197 192 192 199 198 197 198 200 207 206 203 208 210 215 217 211 212 214 211 214 220 221 224 232
182 189 193 181 175 184 186 194 191 189 189 179 172 175 172 174 181 178 177 182 179 176 181 186 185 180 184 188 189 188 187 189 193 195 198 200 201 200 200 201 196 196 203 202 200 201 203 209 208 206 209 211 215 219 215 214 215 215 216 219 222 224 231
183 184 195 187 177 182 182 175 186 209 201 171 165 174 171 167 177 178 173 180 181 177 181 190 188 181 184 190 190 189 190 193 194 197 200 200 201 202 203 202 198 199 204 205 205 204 205 213 213 211 213 213 215 219 218 216 216 219 218 216 221 225 227
191 184 189 190 182 176 173 172 183 209 216 179 169 175 168 157 161 165 162 170 179 180 183 191 192 183 182 188 191 191 193 196 195 197 202 204 204 206 206 205 202 200 198 199 205 206 208 216 213 211 217 216 215 217 219 220 218 221 222 218 221 224 226
185 180 174 181 185 175 167 167 178 198 204 186 166 156 153 151 152 158 166 173 178 182 183 190 195 186 184 190 192 194 196 197 198 199 203 206 208 209 209 209 207 200 196 201 210 208 211 219 217 219 221 217 219 222 221 222 222 223 224 223 224 227 230
160 153 138 128 133 131 138 142 126 145 180 155 130 129 144 150 150 160 176 181 180 185 183 188 197 191 186 190 193 197 201 200 200 202 204 206 210 212 213 214 212 205 200 203 211 210 212 218 220 225 226 218 219 228 226 225 227 226 225 227 229 228 230
146 137 128 121 123 119 116 105 84 71 62 100 119 133 146 150 153 164 176 176 180 189 186 187 197 193 187 187 190 196 205 207 206 206 207 210 212 214 214 214 216 213 202 198 206 212 214 217 218 223 228 223 219 227 230 226 227 230 230 230 230 229 229
124 135 141 136 141 134 119 112 109 110 110 114 123 136 145 149 156 168 176 175 177 185 189 195 200 195 190 192 194 195 200 211 215 212 212 214 216 219 219 217 219 218 206 196 201 207 210 215 219 220 224 224 221 227 232 229 229 234 233 232 233 233 233
115 132 142 142 145 139 125 128 137 143 138 129 123 128 140 144 147 161 174 179 182 186 190 195 195 190 191 197 201 200 203 212 217 215 217 220 221 222 224 223 223 223 213 199 199 206 208 212 219 221 221 222 223 225 228 230 231 234 235 235 236 235 234
128 142 152 158 154 147 141 145 157 170 148 129 119 109 113 125 136 151 163 168 176 183 185 182 179 182 189 194 200 204 208 213 217 221 224 227 230 231 232 234 233 231 224 209 204 209 212 214 219 220 218 219 222 223 225 228 230 233 235 235 236 235 234
236 171 155 156 152 148 154 156 164 181 169 140 127 109 76 47 135 170 173 170 168 166 164 163 165 178 191 195 200 203 204 209 217 221 220 221 227 229 232 243 248 245 238 221 211 213 217 222 226 222 217 218 219 220 224 226 229 234 234 233 235 236 235
151 126 118 129 155 159 158 149 127 160 154 143 153 162 180 213 232 232 222 219 215 205 203 202 189 194 206 210 213 207 201 206 213 213 206 196 201 211 215 224 237 246 250 242 228 225 227 229 230 224 219 221 221 221 225 227 231 237 238 233 232 235 237
154 131 116 121 133 148 147 126 92 92 89 108 152 163 180 200 214 220 218 222 227 227 232 235 230 232 234 232 234 230 225 228 224 220 211 192 180 209 240 236 244 251 256 255 246 244 245 237 230 224 220 222 223 225 229 231 231 239 245 238 231 232 237
135 111 103 103 94 85 84 76 74 82 72 62 90 100 127 176 188 197 202 207 214 217 224 229 230 234 239 241 244 242 242 246 254 262 243 227 234 253 264 269 274 269 266 267 256 253 255 249 236 234 230 226 228 235 241 242 241 247 251 243 238 239 239
91 84 80 80 81 79 83 79 74 76 72 56 57 61 60 74 89 97 103 109 155 189 196 202 216 225 230 236 243 244 245 249 257 270 255 233 242 247 249 257 264 261 259 261 257 257 260 255 248 245 239 234 239 247 251 249 251 256 253 246 247 247 239
75 81 80 78 78 76 84 94 98 97 96 88 78 76 77 74 71 75 77 73 73 80 86 85 84 122 192 198 203 220 232 238 243 245 226 213 223 234 242 247 251 249 249 252 253 254 256 255 253 250 245 241 246 255 258 240 242 252 254 250 246 240 230
72 81 88 90 93 93 90 89 90 91 96 104 103 97 93 87 78 75 73 72 73 72 74 80 79 78 114 167 176 185 204 217 220 228 236 230 221 227 237 239 241 242 242 244 246 245 245 250 252 250 246 244 245 252 255 243 237 242 240 235 231 223 220
80 76 76 74 77 90 100 100 94 86 83 85 87 84 79 76 77 77 74 74 74 71 72 78 77 71 80 114 124 93 108 155 215 238 246 242 236 240 240 236 239 242 240 239 236 234 237 243 245 246 247 246 244 247 244 236 237 236 216 203 208 212 216
82 74 66 59 55 57 66 81 89 88 88 84 81 87 92 91 90 90 87 81 74 69 68 67 63 60 62 68 72 76 88 103 141 232 240 227 236 247 244 242 244 244 239 235 233 233 236 238 239 241 240 235 232 235 231 221 219 217 207 203 208 214 216
76 74 69 63 61 55 50 53 59 63 68 68 65 74 85 84 82 85 87 83 76 72 69 61 55 55 55 56 68 81 87 94 101 100 94 98 118 153 201 239 252 244 238 236 236 238 239 241 245 246 241 232 223 214 207 202 200 204 214 214 211 213 222
69 70 70 68 69 68 61 58 56 53 49 46 45 51 53 50 54 62 67 70 70 70 68 59 54 56 58 59 69 78 80 82 90 97 99 97 101 108 115 112 110 165 216 219 222 234 242 246 250 250 241 227 213 202 199 194 189 195 214 222 216 216 224
77 70 72 72 71 70 66 63 62 59 51 43 43 48 48 45 46 47 49 56 63 64 65 62 59 59 60 61 65 71 78 82 84 88 90 92 94 91 83 89 112 133 146 161 165 158 152 146 130 118 185 180 174 171 173 169 164 172 188 207 204 195 201
73 64 65 71 73 74 70 64 62 60 55 48 46 50 54 54 52 45 42 45 51 56 60 62 60 59 57 58 60 62 63 71 83 81 72 69 74 74 70 76 95 110 100 106 131 140 138 127 108 91 97 125 142 146 147 141 135 140 131 76 81 121 155
70 63 59 61 64 67 68 66 62 61 59 54 48 46 48 52 53 50 44 40 40 45 53 58 61 61 55 51 57 59 48 45 66 78 73 67 66 65 66 70 74 74 75 97 127 144 150 148 136 120 114 116 115 116 117 109 100 97 92 82 76 78 89
82 75 67 62 63 65 65 61 59 60 60 57 53 49 47 47 49 48 43 39 37 37 39 43 54 64 60 50 53 60 56 47 53 66 73 72 67 66 69 67 65 68 76 86 98 115 129 143 153 144 130 118 106 101 98 94 90 86 85 85 81 76 76
100 96 88 78 74 75 71 63 57 55 54 54 56 57 55 54 52 47 40 32 30 29 27 26 34 46 54 55 43 43 53 57 51 53 61 68 71 71 73 73 66 65 72 71 68 82 103 117 130 133 129 121 113 109 105 99 93 87 83 79 72 69 67
118 115 108 98 89 85 79 72 66 60 53 51 52 53 57 59 55 49 42 33 25 18 12 12 21 27 33 43 39 37 53 63 59 58 52 45 48 54 55 68 74 61 51 50 52 62 81 101 115 117 118 118 117 120 119 108 98 91 87 81 74 70 64
131 128 121 115 109 101 92 82 77 74 67 60 57 56 58 61 58 52 45 38 30 16 4 3 10 18 25 34 32 29 40 48 50 72 69 44 34 40 40 42 53 51 38 31 31 33 32 48 102 108 108 115 114 111 111 108 101 94 89 83 79 76 65
145 142 135 131 127 118 107 98 95 97 89 79 78 76 70 68 66 61 54 47 41 31 12 2 3 11 20 35 38 24 18 19 21 56 91 74 35 29 34 38 44 47 35 25 25 26 22 23 44 55 53 62 79 89 96 94 85 81 75 66 66 62 52
159 153 149 148 146 143 134 122 114 110 101 93 101 100 87 80 76 73 76 73 62 51 26 357 348 358 8 25 43 28 10 22 24 20 53 104 98 68 44 41 45 44 33 23 22 27 26 27 38 45 46 46 51 67 83 76 59 56 51 42 44 40 29
167 163 165 168 163 159 152 141 134 127 120 118 121 117 108 103 91 81 84 83 75 72 47 356 336 345 19 24 30 18 9 29 43 17 17 68 97 96 89 74 61 52 46 38 28 25 28 31 35 44 55 53 40 42 55 52 37 27 22 22 21 14 11
177 171 169 171 165 159 150 144 146 145 139 137 134 124 118 115 105 87 83 83 76 79 67 19 353 355 28 46 44 25 19 28 35 24 22 34 57 83 108 112 96 75 64 60 53 42 39 40 40 47 65 68 46 24 18 17 11 3 0 1 356 348 347
179 168 153 146 147 149 146 144 148 146 143 146 144 136 130 125 116 100 83 79 72 65 68 53 29 15 19 43 53 44 42 39 27 23 31 32 30 34 65 127 128 111 85 73 71 66 61 60 59 59 61 61 53 19 356 353 351 347 342 338 335 337 337